Regional Weather Roundup
Issued by NWS Midland/Odessa, TX

Skip options and go directly to product.
Home | Oldest Version | Next Version | Current Version | All | Text Only | Save Text | Print | Product List | Glossary On

Skip product version selection by date and time.   
431
ASUS44 KMAF 170002
RWRMAF
MIDLAND AREA WEATHER ROUNDUP
NATIONAL WEATHER SERVICE MIDLAND TX
700 PM CDT WED APR 16 2014

...IN SOUTHWEST TEXAS AND SOUTHEAST NEW MEXICO...

CITY           SKY/WX    TMP DP  RH WIND       PRES   REMARKS
ALPINE         MOSUNNY   80  13   8 SW15G23   29.87S
ANDREWS        FAIR      81  21  11 S13G20    29.74S
ARTESIA        SUNNY     84   5   5 SW15G23   29.67F
BIG SPRING     SUNNY     79  26  14 SE21      29.78S
CARLSBAD       SUNNY     86   3   4 S13       29.67F
DRYDEN           N/A     74  35  24 SE18G26   29.80S
FORT STOCKTON  MOSUNNY   78  22  12 SE21G32   29.73S
GUAD PASS      SUNNY     74   3   6 W29G38    29.84S
HOBBS          SUNNY     81  16   9 SE15      29.73F
MARFA          MOSUNNY   77  18  10 SW16      29.86S
MIDLAND AIRPK  SUNNY     80  24  12 S15       29.75S
MIDLAND INTL   SUNNY     77  28  16 S21       29.75S
ODESSA         SUNNY     77  24  14 SE17      29.76R
PECOS          MOSUNNY   84  27  12 E18G26    29.68S
PRESIDIO       FAIR      84  15   7 W5        29.73F
SEMINOLE       SUNNY     81  20  10 S13G23    29.75R
SNYDER         SUNNY     77  19  11 SE20G28   29.77S
WINK           SUNNY     81  22  11 SE21G29   29.70R
$$
...OTHER STATIONS IN TEXAS...

CITY           SKY/WX    TMP DP  RH WIND       PRES   REMARKS
ABILENE        SUNNY     74  29  19 SE22G29   29.80F
AMARILLO       PTSUNNY   71  14  11 E18G29    29.79R
AUSTIN         PTSUNNY   68  48  48 SE17G26   29.94F
BROWNSVILLE    PTSUNNY   70  55  59 SE15      29.94S
CORPUS CHRISTI CLOUDY    68  52  56 SE16      29.97S
DALLAS FTW     MOSUNNY   66  41  40 S21G30    29.93S
DEL RIO        CLOUDY    73  39  29 SE17G26   29.83S
EL PASO        MOSUNNY   83   1   4 W9G23     29.73F
HOUSTON INT    PTCLDY    62  49  62 SE14      30.04S
LUBBOCK        MOSUNNY   81  10   7 S20       29.71R
SAN ANGELO     SUNNY     75  30  19 SE22      29.81R
SAN ANTONIO    PTSUNNY   71  44  37 SE17      29.92F
WACO           SUNNY     66  45  46 S18G25    29.94S
WICHITA FALLS  NOT AVBL
$$
...OTHER LOCATIONS IN NEW MEXICO...

CITY           SKY/WX    TMP DP  RH WIND       PRES   REMARKS
ALAMAGORDO     MOSUNNY   81   5   5 S10       29.75F
ALBUQUERQUE    CLOUDY    71   7   8 NW14G24   29.80R
CANNON AFB     PTSUNNY   76   5   6 SW7       29.73S
CLOVIS         MOSUNNY   75  18  11 SW9       29.76S
HOLLOMAN AFB   MOSUNNY   80   1   4 S16       29.71F
ROSWELL        SUNNY     83  10   6 SE14      29.68F
RUIDOSO        SUNNY     66   1   7 NW8       29.90S
SANTA FE       CLOUDY    65   3   8 W12       29.83R
TRUTH OR CONSE SUNNY     80  -5   3 NW17G25   29.71S
TUCUMCARI      CLOUDY    70  20  15 NE28G37   29.75R
$$

USA.gov is the U.S. government's official web portal to all federal, state and local government web resources and services.